Regional Weather Roundup
Issued by NWS

Home | Current Version | Previous Version | Graphics & Text | Print | Product List | Glossary On
Versions: 1 2 3 4 5 6 7 8 9 10 11 12 13 14 15 16 17 18 19 20 21 22 23 24 25 26 27 28 29 30 31 32 33 34 35 36 37 38 39 40 41 42 43 44 45 46 47 48 49 50
000
ASUS45 KCYS 262010
RWRWY

WYOMING REGIONAL WEATHER ROUNDUP
NATIONAL WEATHER SERVICE CHEYENNE WY
200 PM MDT FRI MAY 26 2017

NOTE:  "FAIR" INDICATES FEW OR NO CLOUDS BELOW 12,000 FEET
WITH NO SIGNIFICANT WEATHER AND/OR OBSTRUCTIONS TO VISIBILITY.

WYZ001-262100-
YELLOWSTONE NATIONAL PARK

CITY           SKY/WX    TMP DP  RH WIND       PRES   REMARKS
LK YELLOWSTONE   N/A     33  33 100 CALM      29.99R
W YELLOWSTONE  NOT AVBL

$$
WYZ002>013-054>058-071-098>099-262100-
NORTHERN WYOMING

CITY           SKY/WX    TMP DP  RH WIND       PRES   REMARKS
JACKSON        CLOUDY    39  39 100 N6        29.93R WCI  35
CODY           LGT RAIN  47  31  53 VRB3      29.96R
GREYBULL       PTSUNNY   62  26  25 NW9G16    29.86S
WORLAND        CLOUDY    56  35  45 S10       29.89S
SHERIDAN       CLOUDY    56  37  49 CALM      29.92F
BUFFALO        CLOUDY    53  34  48 N6        29.95S
GILLETTE       CLOUDY    56  34  43 CALM      29.92R
HULETT         CLOUDY    57  32  38 W6        29.93R
NEWCASTLE      FAIR      57  28  33 W7        29.93S

$$
WYZ014>020-022>026-101>103-262100-
CENTRAL WYOMING

CITY           SKY/WX    TMP DP  RH WIND       PRES   REMARKS
BIG PINEY      FAIR      51  41  68 SE9       29.89F
PINEDALE       FAIR      50  34  53 S5        29.91F
DUBOIS         LGT RAIN  37  36  93 SE12G17   29.93R WCI  30
LANDER         CLOUDY    44  38  79 NE5       29.89F
RIVERTON       CLOUDY    44  41  89 CALM      29.91F
CASPER         CLOUDY    49  43  80 E14       29.90F
DOUGLAS        PTSUNNY   52  41  66 E9        29.93F

$$
WYZ021-027>030-104>119-262100-
SOUTHERN WYOMING

CITY           SKY/WX    TMP DP  RH WIND       PRES   REMARKS
EVANSTON       CLOUDY    48  32  53 SW18      29.94R
KEMMERER         N/A     50  34  53 W13G21    29.90F
FORT BRIDGER   FAIR      59  28  31 W35G49    29.94S
ROCK SPRINGS   CLOUDY    54  35  48 NW14G23   29.89R
DIXON            N/A     67  29  24 SW20G33   29.83S
RAWLINS        CLOUDY    57  39  51 SE10G22   29.81F
SARATOGA       CLOUDY    59  37  44 S17       29.84F
LARAMIE        LGT RAIN  49  42  77 S23G44    29.87F
CHEYENNE       CLOUDY    56  42  59 S15G22    29.91F
TORRINGTON     FAIR      62  36  37 MISG      29.89F
PINE BLUFFS    FAIR      63  41  45 SE9       29.90F

$$



USA.gov is the U.S. government's official web portal to all federal, state and local government web resources and services.